SQ7FJB-2 Weather Reports


time (UTC)temp
F
wind
direction
speed
knots
gust
knots
rain 1hr
in
rain 24hr
in
rain mn
in
humidity
%
barometer
mb
20260503055129 58 61 1.7 1.7 0.00 0.00 0.00 53 1017.3
20260503054115 58 138 1.7 1.7 0.00 0.00 0.00 55 1017.3
20260503053116 57 151 1.7 1.7 0.00 0.00 0.00 55 1017.3
20260503052103 56 180 2.6 2.6 0.00 0.00 0.00 57 1017.4
20260503051103 55 186 2.6 2.6 0.00 0.00 0.00 57 1017.5
20260503045050 53 187 1.7 1.7 0.00 0.00 0.00 59 1017.7
20260503044038 51 187 0.9 0.9 0.00 0.00 0.00 63 1017.7
20260503043025 49 204 0.0 0.0 0.00 0.00 0.00 68 1017.7
20260503042025 47 192 0.0 0.0 0.00 0.00 0.00 73 1017.7
20260503041025 46 186 0.0 0.0 0.00 0.00 0.00 75 1017.6
20260503040025 43 174 0.0 0.0 0.00 0.00 0.00 79 1017.5
20260503035025 40 172 0.0 0.0 0.00 0.00 0.00 89 1017.6
20260503034012 39 198 0.0 0.0 0.00 0.00 0.00 92 1017.6
20260503033012 38 265 0.0 0.0 0.00 0.00 0.00 93 1017.6
20260503032000 38 204 0.0 0.0 0.00 0.00 0.00 92 1017.7
20260503031000 38 198 0.0 0.0 0.00 0.00 0.00 92 1017.6
20260503025948 38 198 0.0 0.0 0.00 0.00 0.00 91 1017.7
20260503024936 38 201 0.0 0.0 0.00 0.00 0.00 91 1017.6
20260503023935 39 198 0.0 0.0 0.00 0.00 0.00 90 1017.6
20260503022923 39 265 0.0 0.0 0.00 0.00 0.00 90 1017.7
20260503021910 39 277 0.0 0.0 0.00 0.00 0.00 90 1017.7
20260503020857 39 272 0.0 0.0 0.00 0.00 0.00 90 1017.7
20260503015845 40 156 0.0 0.0 0.00 0.00 0.00 87 1017.7
20260503014834 40 156 0.0 0.0 0.00 0.00 0.00 88 1017.8
20260503013834 40 150 0.0 0.0 0.00 0.00 0.00 87 1017.7
20260503012824 41 150 0.0 0.0 0.00 0.00 0.00 87 1017.8
20260503011820 41 150 0.0 0.0 0.00 0.00 0.00 86 1017.9
20260503010808 42 150 0.0 0.0 0.00 0.00 0.00 84 1017.8
20260503005755 43 150 0.0 0.0 0.00 0.00 0.00 82 1017.8
20260503004755 44 150 0.0 0.0 0.00 0.00 0.00 79 1017.8
20260503003743 45 192 0.0 0.0 0.00 0.00 0.00 77 1017.9
20260503002730 47 192 0.0 0.0 0.00 0.00 0.00 73 1017.9
20260503001717 49 192 0.0 0.0 0.00 0.00 0.00 70 1017.9
20260503000706 49 222 0.0 0.0 0.00 0.00 0.00 70 1017.9
20260502235704 50 186 0.0 0.0 0.00 0.00 0.00 69 1017.8
20260502234653 50 186 0.0 0.0 0.00 0.00 0.00 68 1018.0
20260502233640 50 228 0.0 0.0 0.00 0.00 0.00 68 1017.9
20260502232640 50 210 0.0 0.0 0.00 0.00 0.00 69 1018.0
20260502231628 51 180 0.0 0.0 0.00 0.00 0.00 68 1018.0
20260502230627 51 186 0.0 0.0 0.00 0.00 0.00 68 1018.1
20260502225615 51 198 0.0 0.0 0.00 0.00 0.00 67 1018.2
20260502224615 51 222 0.0 0.0 0.00 0.00 0.00 67 1018.2
20260502223614 51 198 0.0 0.0 0.00 0.00 0.00 67 1018.3
20260502222603 50 198 0.0 0.0 0.00 0.00 0.00 69 1018.3
20260502221603 49 186 0.0 0.0 0.00 0.00 0.00 70 1018.4
20260502220550 49 198 0.0 0.0 0.00 0.00 0.00 70 1018.5
20260502215550 50 198 0.0 0.0 0.00 0.00 0.00 70 1018.5
20260502214538 51 198 0.0 0.0 0.00 0.00 0.00 67 1018.5
20260502213525 52 181 0.0 0.0 0.00 0.00 0.00 65 1018.4
20260502212525 53 192 0.0 0.0 0.00 0.00 0.00 63 1018.5
20260502211513 55 192 0.0 0.0 0.00 0.00 0.00 61 1018.5
20260502210513 56 180 0.0 0.0 0.00 0.00 0.00 59 1018.6
20260502205500 55 192 0.0 0.0 0.00 0.00 0.00 61 1018.7
20260502204500 55 186 0.0 0.0 0.00 0.00 0.00 61 1018.8
20260502203448 55 180 0.0 0.0 0.00 0.00 0.00 61 1018.7
20260502202449 54 180 0.0 0.0 0.00 0.00 0.00 62 1018.8
20260502201447 53 216 0.0 0.0 0.00 0.00 0.00 64 1018.8
20260502200435 52 204 0.0 0.0 0.00 0.00 0.00 66 1018.8
20260502195422 50 210 0.0 0.0 0.00 0.00 0.00 70 1018.8
20260502194422 50 209 0.0 0.0 0.00 0.00 0.00 71 1018.8
20260502193410 51 222 0.0 0.0 0.00 0.00 0.00 73 1018.8
20260502192410 51 222 0.0 0.0 0.00 0.00 0.00 71 1018.9
20260502191410 52 222 0.0 0.0 0.00 0.00 0.00 71 1018.9
20260502190357 53 222 0.0 0.0 0.00 0.00 0.00 70 1018.9
20260502185345 54 222 0.0 0.0 0.00 0.00 0.00 68 1019.0
20260502184345 55 222 0.0 0.0 0.00 0.00 0.00 67 1018.9
20260502183345 56 222 0.0 0.0 0.00 0.00 0.00 62 1018.9
20260502182333 57 222 0.0 0.0 0.00 0.00 0.00 60 1018.9
20260502181333 59 222 0.0 0.0 0.00 0.00 0.00 58 1018.9
20260502180320 60 221 0.0 0.0 0.00 0.00 0.00 55 1018.9
20260502170230 70 210 0.0 0.0 0.00 0.00 0.00 34 1019.0
20260502164218 70 231 0.9 0.9 0.00 0.00 0.00 33 1019.0
20260502163205 71 120 3.5 3.5 0.00 0.00 0.00 33 1019.1
20260502162153 71 186 1.7 1.7 0.00 0.00 0.00 33 1019.2
20260502161152 72 288 0.0 0.0 0.00 0.00 0.00 34 1019.3
20260502160141 75 222 1.7 1.7 0.00 0.00 0.00 31 1019.4
20260502152102 75 294 0.0 0.0 0.00 0.00 0.00 30 1020.0
20260502151050 75 138 2.6 2.6 0.00 0.00 0.00 30 1020.1
20260502122909 73 126 1.7 1.7 0.00 0.00 0.00 31 1021.7
20260502121909 72 252 0.9 0.9 0.00 0.00 0.00 33 1021.9
20260502120909 72 348 1.7 1.7 0.00 0.00 0.00 31 1022.0
20260502115857 72 168 2.6 2.6 0.00 0.00 0.00 33 1022.1
20260502114857 72 222 1.7 1.7 0.00 0.00 0.00 32 1022.2
20260502113857 72 184 1.7 1.7 0.00 0.00 0.00 32 1022.3
20260502112856 70 330 0.0 0.0 0.00 0.00 0.00 35 1022.4
20260502111844 70 274 0.9 0.9 0.00 0.00 0.00 36 1022.6
20260502110844 70 30 0.0 0.0 0.00 0.00 0.00 35 1022.7
20260502105834 70 342 0.9 0.9 0.00 0.00 0.00 33 1022.8
20260502104832 70 330 0.9 0.9 0.00 0.00 0.00 35 1022.9
20260502103832 70 54 0.0 0.0 0.00 0.00 0.00 37 1023.0
20260502102819 71 300 0.0 0.0 0.00 0.00 0.00 35 1023.1
20260502101819 70 282 0.0 0.0 0.00 0.00 0.00 34 1023.2
20260502100819 69 171 0.9 0.9 0.00 0.00 0.00 36 1023.3
20260502090806 68 330 0.0 0.0 0.00 0.00 0.00 37 1023.8
20260502070716 63 185 3.5 3.5 0.00 0.00 0.00 49 1024.2
20260502065716 62 170 0.9 0.9 0.00 0.00 0.00 49 1024.2
20260502064715 61 207 0.9 0.9 0.00 0.00 0.00 50 1024.2
20260502063703 61 185 0.0 0.0 0.00 0.00 0.00 52 1024.2
20260502062651 60 64 0.0 0.0 0.00 0.00 0.00 54 1024.2
20260502061639 59 187 1.7 1.7 0.00 0.00 0.00 56 1024.2
20260502060626 57 181 0.9 0.9 0.00 0.00 0.00 59 1024.2
20260502055614 56 173 1.7 1.7 0.00 0.00 0.00 59 1024.1